| time (UTC) | temp F | wind direction | speed knots | gust knots | rain 1hr in | rain 24hr in | rain mn in | humidity % | barometer mb |
| 20260505122133 | 56 | 0.0 | 0.9 | 0.00 | 0.00 | 0.00 | 84 | ||
| 20260505121133 | 56 | 0.0 | 1.7 | 0.00 | 0.00 | 0.00 | 84 | ||
| 20260505120138 | 56 | 0.0 | 2.6 | 0.00 | 0.00 | 0.00 | 84 | ||
| 20260505115138 | 56 | 0.0 | 0.0 | 0.00 | 0.00 | 0.00 | 84 | ||
| 20260505114133 | 56 | 0.0 | 2.6 | 0.00 | 0.00 | 0.00 | 84 | ||
| 20260505113134 | 56 | 0.0 | 0.9 | 0.00 | 0.00 | 0.00 | 84 | ||
| 20260505112133 | 56 | 0.0 | 0.0 | 0.00 | 0.00 | 0.00 | 85 | ||
| 20260505111714 | 56 | 0.0 | 0.9 | 0.00 | 0.00 | 0.00 | 85 | ||
| 20260505111421 | 56 | 0.0 | 0.9 | 0.00 | 0.00 | 0.00 | 85 | ||
| 20260505111139 | 56 | 0.0 | 0.9 | 0.00 | 0.00 | 0.00 | 85 | ||
| 20260505110133 | 56 | 0.0 | 0.9 | 0.00 | 0.00 | 0.00 | 85 | ||
| 20260505102133 | 56 | 293 | 1.7 | 3.5 | 0.00 | 0.00 | 0.00 | 85 | |
| 20260505101133 | 56 | 293 | 0.9 | 4.3 | 0.00 | 0.00 | 0.00 | 85 | |
| 20260505100133 | 56 | 293 | 1.7 | 3.5 | 0.00 | 0.00 | 0.00 | 85 | |
| 20260505095134 | 56 | 293 | 2.6 | 6.1 | 0.00 | 0.00 | 0.00 | 85 | |
| 20260505094134 | 56 | 293 | 2.6 | 5.2 | 0.00 | 0.00 | 0.00 | 85 | |
| 20260505093133 | 56 | 293 | 1.7 | 5.2 | 0.00 | 0.00 | 0.00 | 85 | |
| 20260505092133 | 56 | 293 | 2.6 | 6.1 | 0.00 | 0.00 | 0.00 | 85 | |
| 20260505091133 | 56 | 293 | 2.6 | 5.2 | 0.00 | 0.00 | 0.00 | 86 | |
| 20260505090153 | 56 | 270 | 3.5 | 6.1 | 0.00 | 0.00 | 0.00 | 86 | |
| 20260505085134 | 56 | 293 | 3.5 | 6.1 | 0.00 | 0.00 | 0.00 | 86 | |
| 20260505084133 | 56 | 293 | 2.6 | 5.2 | 0.00 | 0.00 | 0.00 | 86 | |
| 20260505083133 | 56 | 270 | 2.6 | 6.1 | 0.00 | 0.00 | 0.00 | 86 | |
| 20260505082133 | 56 | 270 | 4.3 | 7.8 | 0.00 | 0.00 | 0.00 | 86 | |
| 20260505081154 | 56 | 293 | 4.3 | 7.8 | 0.00 | 0.00 | 0.00 | 86 | |
| 20260505080133 | 56 | 270 | 3.5 | 6.1 | 0.00 | 0.00 | 0.00 | 86 | |
| 20260505075133 | 56 | 270 | 3.5 | 7.0 | 0.00 | 0.00 | 0.00 | 86 | |
| 20260505074134 | 56 | 270 | 4.3 | 6.1 | 0.00 | 0.00 | 0.00 | 86 | |
| 20260505073133 | 56 | 293 | 5.2 | 8.7 | 0.00 | 0.00 | 0.00 | 86 | |
| 20260505072134 | 56 | 270 | 4.3 | 8.7 | 0.00 | 0.00 | 0.00 | 86 | |
| 20260505071133 | 56 | 270 | 2.6 | 6.1 | 0.00 | 0.00 | 0.00 | 86 | |
| 20260505070132 | 56 | 270 | 3.5 | 7.8 | 0.00 | 0.00 | 0.00 | 86 | |
| 20260505065155 | 56 | 293 | 4.3 | 8.7 | 0.00 | 0.00 | 0.00 | 86 | |
| 20260505064135 | 56 | 293 | 5.2 | 8.7 | 0.00 | 0.00 | 0.00 | 86 | |
| 20260505063135 | 56 | 270 | 5.2 | 10.4 | 0.00 | 0.00 | 0.00 | 85 | |
| 20260505062215 | 57 | 270 | 3.5 | 6.1 | 0.00 | 0.00 | 0.00 | 85 | |
| 20260505061155 | 57 | 293 | 4.3 | 7.8 | 0.00 | 0.00 | 0.00 | 85 | |
| 20260505060135 | 57 | 293 | 5.2 | 8.7 | 0.00 | 0.00 | 0.00 | 85 | |
| 20260505055135 | 57 | 293 | 5.2 | 8.7 | 0.00 | 0.00 | 0.00 | 85 | |
| 20260505054135 | 57 | 270 | 4.3 | 9.6 | 0.00 | 0.00 | 0.00 | 84 | |
| 20260505053215 | 57 | 293 | 5.2 | 8.7 | 0.00 | 0.00 | 0.00 | 84 | |
| 20260505052133 | 57 | 293 | 5.2 | 9.6 | 0.00 | 0.00 | 0.00 | 84 | |
| 20260505051213 | 57 | 293 | 4.3 | 7.0 | 0.00 | 0.00 | 0.00 | 84 | |
| 20260505050133 | 57 | 270 | 4.3 | 9.6 | 0.00 | 0.00 | 0.00 | 83 | |
| 20260505041133 | 59 | 293 | 4.3 | 7.8 | 0.00 | 0.00 | 0.00 | 80 | |
| 20260505040154 | 59 | 293 | 4.3 | 9.6 | 0.00 | 0.00 | 0.00 | 79 | |
| 20260505035133 | 60 | 270 | 4.3 | 7.8 | 0.00 | 0.00 | 0.00 | 78 | |
| 20260505034133 | 60 | 293 | 6.1 | 9.6 | 0.00 | 0.00 | 0.00 | 77 | |
| 20260505033133 | 61 | 293 | 6.1 | 10.4 | 0.00 | 0.00 | 0.00 | 75 | |
| 20260505032133 | 62 | 293 | 4.3 | 9.6 | 0.00 | 0.00 | 0.00 | 74 | |
| 20260505031133 | 63 | 270 | 6.1 | 9.6 | 0.00 | 0.00 | 0.00 | 72 | |
| 20260505025153 | 65 | 293 | 5.2 | 9.6 | 0.00 | 0.00 | 0.00 | 69 | |
| 20260505024153 | 66 | 293 | 4.3 | 11.3 | 0.00 | 0.00 | 0.00 | 67 | |
| 20260505023133 | 66 | 270 | 7.0 | 13.0 | 0.00 | 0.00 | 0.00 | 66 | |
| 20260505022213 | 67 | 293 | 6.1 | 12.2 | 0.00 | 0.00 | 0.00 | 64 | |
| 20260505021133 | 69 | 293 | 4.3 | 9.6 | 0.00 | 0.00 | 0.00 | 62 | |
| 20260505020133 | 69 | 270 | 4.3 | 7.0 | 0.00 | 0.00 | 0.00 | 61 | |
| 20260505015134 | 70 | 270 | 5.2 | 11.3 | 0.00 | 0.00 | 0.00 | 59 | |
| 20260505014133 | 70 | 270 | 5.2 | 11.3 | 0.00 | 0.00 | 0.00 | 58 | |
| 20260505013133 | 71 | 293 | 5.2 | 12.2 | 0.00 | 0.00 | 0.00 | 59 | |
| 20260505012227 | 71 | 293 | 6.1 | 10.4 | 0.00 | 0.00 | 0.00 | 57 | |
| 20260505011133 | 72 | 270 | 7.0 | 13.9 | 0.00 | 0.00 | 0.00 | 56 | |
| 20260505010133 | 73 | 270 | 7.0 | 12.2 | 0.00 | 0.00 | 0.00 | 56 | |
| 20260505005133 | 73 | 270 | 6.1 | 12.2 | 0.00 | 0.00 | 0.00 | 55 | |
| 20260505004214 | 74 | 270 | 5.2 | 10.4 | 0.00 | 0.00 | 0.00 | 54 | |
| 20260505003133 | 75 | 270 | 5.2 | 10.4 | 0.00 | 0.00 | 0.00 | 53 | |
| 20260505002153 | 76 | 293 | 5.2 | 10.4 | 0.00 | 0.00 | 0.00 | 53 | |
| 20260505001134 | 76 | 270 | 7.0 | 12.2 | 0.00 | 0.00 | 0.00 | 52 | |
| 20260505000133 | 76 | 293 | 7.0 | 12.2 | 0.00 | 0.00 | 0.00 | 49 | |
| 20260504235133 | 78 | 270 | 3.5 | 7.8 | 0.00 | 0.00 | 0.00 | 50 | |
| 20260504234134 | 78 | 270 | 4.3 | 8.7 | 0.00 | 0.00 | 0.00 | 50 | |
| 20260504233133 | 78 | 293 | 4.3 | 9.6 | 0.00 | 0.00 | 0.00 | 49 | |
| 20260504232133 | 79 | 270 | 4.3 | 8.7 | 0.00 | 0.00 | 0.00 | 48 | |
| 20260504231133 | 79 | 225 | 1.7 | 7.8 | 0.00 | 0.00 | 0.00 | 48 | |
| 20260504230234 | 78 | 225 | 1.7 | 5.2 | 0.00 | 0.00 | 0.00 | 50 | |
| 20260504225134 | 78 | 225 | 1.7 | 5.2 | 0.00 | 0.00 | 0.00 | 52 | |
| 20260504224133 | 78 | 158 | 0.9 | 2.6 | 0.00 | 0.00 | 0.00 | 53 | |
| 20260504223133 | 77 | 158 | 1.7 | 3.5 | 0.00 | 0.00 | 0.00 | 54 | |
| 20260504222133 | 77 | 158 | 1.7 | 5.2 | 0.00 | 0.00 | 0.00 | 54 | |
| 20260504221133 | 77 | 158 | 1.7 | 5.2 | 0.00 | 0.00 | 0.00 | 54 | |
| 20260504220133 | 77 | 158 | 1.7 | 4.3 | 0.00 | 0.00 | 0.00 | 54 | |
| 20260504215153 | 76 | 135 | 1.7 | 5.2 | 0.00 | 0.00 | 0.00 | 55 | |
| 20260504214133 | 75 | 158 | 2.6 | 6.1 | 0.00 | 0.00 | 0.00 | 55 | |
| 20260504213133 | 76 | 158 | 2.6 | 6.1 | 0.00 | 0.00 | 0.00 | 55 | |
| 20260504212133 | 76 | 158 | 1.7 | 6.1 | 0.00 | 0.00 | 0.00 | 54 | |
| 20260504211133 | 76 | 158 | 2.6 | 6.1 | 0.00 | 0.00 | 0.00 | 56 | |
| 20260504210153 | 75 | 113 | 2.6 | 7.8 | 0.00 | 0.00 | 0.00 | 56 | |
| 20260504205133 | 74 | 158 | 3.5 | 7.8 | 0.00 | 0.00 | 0.00 | 57 | |
| 20260504204133 | 74 | 180 | 2.6 | 6.1 | 0.00 | 0.00 | 0.00 | 57 | |
| 20260504203154 | 74 | 158 | 3.5 | 7.0 | 0.00 | 0.00 | 0.00 | 58 | |
| 20260504202133 | 74 | 158 | 2.6 | 7.0 | 0.00 | 0.00 | 0.00 | 57 | |
| 20260504201153 | 73 | 158 | 2.6 | 7.0 | 0.00 | 0.00 | 0.00 | 58 | |
| 20260504200133 | 72 | 180 | 3.5 | 7.0 | 0.00 | 0.00 | 0.00 | 60 | |
| 20260504195133 | 72 | 158 | 2.6 | 6.1 | 0.00 | 0.00 | 0.00 | 59 | |
| 20260504194133 | 72 | 158 | 2.6 | 6.1 | 0.00 | 0.00 | 0.00 | 60 | |
| 20260504193134 | 72 | 158 | 1.7 | 6.1 | 0.00 | 0.00 | 0.00 | 60 | |
| 20260504192134 | 71 | 158 | 2.6 | 7.0 | 0.00 | 0.00 | 0.00 | 60 | |
| 20260504191133 | 70 | 158 | 2.6 | 5.2 | 0.00 | 0.00 | 0.00 | 63 | |
| 20260504190133 | 70 | 180 | 2.6 | 6.1 | 0.00 | 0.00 | 0.00 | 62 | |
| 20260504185134 | 69 | 180 | 3.5 | 6.1 | 0.00 | 0.00 | 0.00 | 63 | |
| 20260504184134 | 69 | 180 | 3.5 | 6.1 | 0.00 | 0.00 | 0.00 | 64 | |
| 20260504183154 | 69 | 158 | 3.5 | 7.8 | 0.00 | 0.00 | 0.00 | 64 | |
| 20260504182133 | 68 | 180 | 3.5 | 7.0 | 0.00 | 0.00 | 0.00 | 64 | |
| 20260504181133 | 69 | 158 | 1.7 | 6.1 | 0.00 | 0.00 | 0.00 | 64 | |
| 20260504180154 | 68 | 180 | 1.7 | 5.2 | 0.00 | 0.00 | 0.00 | 66 | |
| 20260504175133 | 68 | 248 | 0.9 | 3.5 | 0.00 | 0.00 | 0.00 | 66 | |
| 20260504174133 | 67 | 248 | 0.9 | 3.5 | 0.00 | 0.00 | 0.00 | 68 | |
| 20260504173153 | 65 | 135 | 0.9 | 3.5 | 0.00 | 0.00 | 0.00 | 70 | |
| 20260504172133 | 64 | 135 | 0.9 | 2.6 | 0.00 | 0.00 | 0.00 | 72 | |
| 20260504171154 | 63 | 225 | 0.9 | 3.5 | 0.00 | 0.00 | 0.00 | 75 | |
| 20260504170153 | 62 | 225 | 1.7 | 3.5 | 0.00 | 0.00 | 0.00 | 76 | |
| 20260504160133 | 59 | 270 | 1.7 | 5.2 | 0.00 | 0.00 | 0.00 | 81 | |
| 20260504151134 | 57 | 270 | 2.6 | 6.1 | 0.00 | 0.00 | 0.00 | 84 | |
| 20260504150133 | 57 | 270 | 2.6 | 5.2 | 0.00 | 0.00 | 0.00 | 84 | |
| 20260504141133 | 56 | 270 | 1.7 | 2.6 | 0.00 | 0.00 | 0.00 | 84 | |
| 20260504140153 | 56 | 270 | 1.7 | 4.3 | 0.00 | 0.00 | 0.00 | 83 | |
| 20260504130133 | 58 | 270 | 2.6 | 5.2 | 0.00 | 0.00 | 0.00 | 80 |